Regional Weather Roundup
Issued by NWS

Home | Current Version | Previous Version | Graphics & Text | Print | Product List | Glossary On
Versions: 1 2 3 4 5 6 7 8 9 10 11 12 13 14 15 16 17 18 19 20 21 22 23 24 25 26 27 28 29 30 31 32 33 34 35 36 37 38 39 40 41 42 43 44 45 46 47 48 49 50
000
ASUS43 KOAX 222002
RWRNE

WEATHER ROUNDUP FOR NEBRASKA
NATIONAL WEATHER SERVICE OMAHA NE
300 PM CDT TUE APR 22 2014

NOTES: SATELLITE DATA IS BEING USED TO AUGMENT CLOUD COVER ABOVE
       12000 FEET.
       "FAIR" INDICATES FEW OR NO CLOUDS BELOW 12,000 FEET WITH NO
       SIGNIFICANT WEATHER AND/OR OBSTRUCTIONS TO VISIBILITY.

  * THESE STATIONS DO NOT REPORT WEATHER SUCH AS RAIN...SNOW OR FOG.

NEZ001>004-019>022-054>056-222100-
NEBRASKA PANHANDLE

CITY           SKY/WX    TMP DP  RH WIND       PRES   REMARKS
SCOTTSBLUFF    PTSUNNY   79  41  25 SE17G23   29.76F
ALLIANCE       PTSUNNY   78  40  25 S22G32    29.79F
CHADRON        CLOUDY    75  45  34 S14       29.71F
KIMBALL        MOSUNNY   77  31  18 S20G26    29.81F
SIDNEY         MOSUNNY   79  42  26 S22       29.82F
$$

NEZ057>060-069>072-079>082-222100-
SOUTHWEST NEBRASKA

CITY           SKY/WX    TMP DP  RH WIND       PRES   REMARKS
NORTH PLATTE   MOSUNNY   71  31  22 S22G31    29.89F
IMPERIAL       PTSUNNY   76  35  22 S25G38    29.86F
LEXINGTON      MOSUNNY   72  33  24 S26G35    29.95F
MCCOOK         MOSUNNY   76  36  23 S31G40    29.92F
OGALLALA       CLOUDY    75  34  22 S20G29    29.84F
$$

NEZ005>010-023>029-035>040-094-222100-
NORTH CENTRAL NEBRASKA

CITY           SKY/WX    TMP DP  RH WIND       PRES   REMARKS
VALENTINE      SUNNY     75  32  20 S30G40    29.82F
AINSWORTH      SUNNY     73  32  22 S26G33    29.88F
BROKEN BOW     SUNNY     68  31  25 S28G40    29.94F
O`NEILL        CLOUDY    66  25  21 S23G31    29.95F
ORD            MOSUNNY   67  30  25 SE21G37   29.95F
THEDFORD       MOSUNNY   75  30  19 S28G38    29.88F
$$

NEZ041-046>049-061>064-073>077-083>087-222100-
SOUTH CENTRAL NEBRASKA

CITY           SKY/WX    TMP DP  RH WIND       PRES   REMARKS
GRAND ISLAND   PTSUNNY   72  32  23 S18       30.01F
AURORA         PTSUNNY   71  31  23 S16G24    30.02F
HASTINGS       CLOUDY    67  29  24 S15G23    30.01F
HEBRON         MOSUNNY   71  27  20 SE12G18   30.04F
HOLDREGE       SUNNY     71  33  24 S23G30    29.97F
KEARNEY *      MOSUNNY   70  34  26 SE28      29.99F
YORK           SUNNY     70  30  23 SE16      30.03F
$$

NEZ011>018-030>034-042>045-222100-
NORTHEAST NEBRASKA

CITY           SKY/WX    TMP DP  RH WIND       PRES   REMARKS
NORFOLK        MOSUNNY   68  29  23 SE15      30.01F
ALBION         PTSUNNY   67  29  23 S18       30.01F
BLAIR          SUNNY     65  30  27 S5        30.07F
COLUMBUS *     SUNNY     68  34  28 SE15      30.04F
FREMONT        SUNNY     65  28  24 SE6       30.06F
TEKAMAH        MOSUNNY   69  28  21 MISG      30.06F
$$

NEZ050>053-065>068-078-088>093-222100-
SOUTHEAST NEBRASKA

CITY           SKY/WX    TMP DP  RH WIND       PRES   REMARKS
LINCOLN        MOSUNNY   69  33  26 SE8       30.07F
OMAHA EPPLEY   MOSUNNY   65  31  28 S5        30.08F
BEATRICE       SUNNY     70  31  23 SE8       30.06F
FALLS CITY     SUNNY     69  31  24 VRB6      30.07F
NEBRASKA CITY  SUNNY     66  30  26 CALM      30.08F
PLATTSMOUTH    SUNNY     65  29  25 SE6       30.08F
$$

NEZ044-045-051>053-067-222100-
OMAHA AREA

CITY           SKY/WX    TMP DP  RH WIND       PRES   REMARKS
OMAHA EPPLEY   MOSUNNY   65  31  28 S5        30.08F
BLAIR          SUNNY     65  30  27 S5        30.07F
FREMONT        SUNNY     65  28  24 SE6       30.06F
MILLARD        SUNNY     65  33  30 CALM      30.07F
OFFUTT AFB     SUNNY     67  35  30 E7        30.08F
PLATTSMOUTH    SUNNY     65  29  25 SE6       30.08F
WAHOO          FAIR      68  26  20 E7        30.06F
$$



USA.gov is the U.S. government's official web portal to all federal, state and local government web resources and services.